Regional Weather Roundup
Issued by NWS

Home | Current Version | Previous Version | Text Only | Print | Product List | Glossary On
Versions: 1 2 3 4 5 6 7 8 9 10 11 12 13 14 15 16 17 18 19 20 21 22 23 24 25 26 27 28 29 30 31 32 33 34 35 36 37 38 39 40 41 42 43 44 45 46 47 48 49 50
000
ASUS44 KEWX 010711
RWRTX
SOUTH TEXAS REGIONAL WEATHER ROUNDUP
NATIONAL WEATHER SERVICE AUSTIN/SAN ANTONIO TX
200 AM CDT SUN MAY 01 2016

NOTE: "FAIR" INDICATED FEW OR NO CLOUDS BELOW 12,000 FEET WITH NO
SIGNIFICANT WEATHER AND/OR OBSTRUCTIONS TO VISIBILITY.

* - THESE STATIONS ARE NOT NWS OR FAA STATIONS...AND ARE NOT SUBJECT
    TO NWS AND FAA QUALITY CONTROL.

TXZ171-172-183>190-010800-
TEXAS HILL COUNTRY AND EDWARDS PLATEAU

CITY           SKY/WX    TMP DP  RH WIND       PRES   REMARKS
JUNCTION       CLEAR     63  53  70 E5        29.85S
*LLANO         CLEAR     64  61  88 CALM      29.89S
BURNET         CLEAR     65  60  84 NE9       29.88S
*HORSESHOE BAY CLEAR     67  62  85 E5        29.86S
*KERRVILLE     CLEAR     59  57  95 CALM      29.84F
*FREDERICKSBRG CLEAR     63  58  86 E6        29.86S
*ROCKSPRINGS   CLEAR     64  54  68 E5        29.85F
*BOERNE STAGE  CLEAR     61  59  94 NE5       29.84F
*CASTROVILLE   CLEAR     68  63  84 E6        29.80F
HONDO          CLEAR     66  62  87 NE10      29.80F
*UVALDE        CLEAR     65  60  83 E9        29.78S
DEL RIO        CLEAR     67  57  70 SE8       29.75R
LAUGHLIN AFB   CLEAR     69  60  72 SE13      29.76R
CARRIZO SPRGS  CLEAR     66  61  82 E5        29.74F
*EAGLE PASS    SUNNY     68  57  68 E10       29.75S
$$

TXZ173-191>194-202-209-217>225-228-010800-
CENTRAL AND SOUTH CENTRAL TEXAS

CITY           SKY/WX    TMP DP  RH WIND       PRES   REMARKS
GEORGETOWN       N/A    N/A N/A N/A MISG        N/A
AUSTIN/BERGSTM CLEAR     70  66  87 NE8       29.83S
AUSTIN/MABRY   CLEAR     70  65  84 N8        29.84F
*AUSTIN/EXEC   CLEAR     68  64  88 NE7       29.85S
*LAGO VISTA    CLEAR     66  64  91 NE9       29.87S
SAN MARCOS     CLEAR     68  64  88 NE9       29.83S
NEW BRAUNFELS  CLEAR     69  65  86 NE8       29.81S
RANDOLPH AFB   CLEAR     69  68  95 NE7       29.80F FOG
PT SAN ANTONIO CLEAR     72  66  81 NE13      29.78F
SAN ANTONIO    PTCLDY    70  64  81 NE8       29.81F
STINSON FIELD  MOCLDY    74  65  73 NE13      29.78F
*PLEASANTON    MOCLDY    71  66  85 NE5       29.79S
*LA GRANGE       N/A     74  69  85 NE8       29.81R
*GIDDINGS      PTCLDY    70  66  88 NE7       29.87S
*GONZALES      PTCLDY    72  70  93 E7        29.81R
$$

TXZ163>164-176>182-195>201-210>213-226-227-235-010800-
SOUTHEAST TEXAS

CITY           SKY/WX    TMP DP  RH WIND       PRES   REMARKS
COLLEGE STN    MOCLDY    71  66  84 NE9       29.84S
*BRYAN         PTCLDY    68  68 100 NE6       29.85F
*CALDWELL      PTCLDY    70  66  88 N7        29.86F
*CROCKETT      PTCLDY    68  66  94 N6        29.88S
*BRENHAM       CLEAR     72  69  90 NE3       29.84S
HUNTSVILLE     PTCLDY    70  67  90 N3        29.85S
CONROE         CLOUDY    73  69  87 VRB6      29.83S
HOUSTON BUSH   MOCLDY    74  74 100 N6        29.80F
HOUSTON HOBBY  MOCLDY    77  75  93 E3        29.79S
*HOUSTON SW AP   N/A     76  74  96 CALM      29.80S FOG
PEARLAND       CLOUDY    78  76  93 CALM      29.80S FOG
HOUSTON HOOKS  CLOUDY    76  74  93 N6        29.81S
ELLINGTON FLD  MOCLDY    77  75  94 NE3       29.81  FOG
SUGAR LAND     CLOUDY    76  73  91 E5        29.79S
*HOUSTON EXEC  CLOUDY    73  73 100 CALM      29.82R FOG
*CLEVELAND MUN CLOUDY    75  74  98 CALM      29.83S FOG
*WHARTON       CLOUDY    75  74  95 E3        29.80S FOG
*COLUMBUS      CLOUDY    74  68  80 NE6       29.80S
*EAGLE LAKE    CLOUDY    74  73  96 N6        29.80S
$$

TXZ214>216-236>238-010800-
THE UPPER TEXAS COAST

CITY           SKY/WX    TMP DP  RH WIND       PRES   REMARKS
*ORANGE        CLOUDY    77  74  89 S7        29.82S FOG
PORT ARTHUR    CLOUDY    77  76  96 S8        29.79F
GALVESTON      CLOUDY    77  77 100 SE8       29.79S
ANGLETON       CLOUDY    78  76  93 NE6       29.78S FOG
*BAY CITY      CLOUDY    75  75 100 NE3       29.77F FOG
PALACIOS       NOT AVBL
$$

TXZ229>234-239>247-010800-
TEXAS COASTAL BEND AND RIO GRANDE PLAINS

CITY           SKY/WX    TMP DP  RH WIND       PRES   REMARKS
VICTORIA       CLOUDY    76  74  93 NE6       29.78S FOG
*BEEVILLE      MOCLDY    74  74 100 E6        29.77S FOG
ROCKPORT       MOCLDY    78  74  87 E8        29.75R
*PORT ARANSAS  PTCLDY    77  76  99 E6        29.74F
*PORT LAVACA   CLOUDY    77  76  97 NE6       29.77S FOG
*INGLESIDE     PTCLDY    65  64  93 E5        29.74F
CORPUS CHRISTI MOCLDY    78  73  84 E9        29.74S
CORPUS NAS     MOCLDY    78  77  96 E8        29.73F
*ROBSTOWN      CLOUDY    77  75  93 CALM      29.75F FOG
ALICE          CLOUDY    74  72  93 NE6       29.75S FOG
KINGSVILLE NAS CLOUDY    75  75 100 E3        29.74F FOG
COTULLA        CLEAR     75  64  68 E7        29.76S
*FAITH RANCH     N/A    N/A N/A N/A MISG        N/A
LAREDO         CLEAR     74  67  78 E7        29.74F
$$

TXZ248>255-010800-
DEEP SOUTH TEXAS

CITY           SKY/WX    TMP DP  RH WIND       PRES   REMARKS
BROWNSVILLE    CLOUDY    78  78 100 E5        29.72F FOG
PORT ISABEL    CLOUDY    80  78  94 E5        29.71S FOG
*SOUTH PADRE     N/A     77  77 100 E7        29.72S VSB 1
HARLINGEN      CLOUDY    77  75  93 E3        29.70F FOG
*HEBBRONVILLE  CLOUDY    75  73  92 E7        29.77S FOG
MCALLEN        CLOUDY    80  75  84 E8        29.72F
*WESLACO       CLOUDY    78  74  88 E5        29.71F FOG
FALFURRIAS     CLOUDY    76  73  90 NE3       29.74S
EDINBURG       CLOUDY    78  75  90 CALM      29.72F FOG
*ZAPATA        CLOUDY    77  71  80 E6        29.72F
$$

TXZ213>215-236>238-242>244-246-247-251-254-255-010800-
CMAN STATIONS

STATION/POSITION TIME  TEMP    WIND        PRES    WAVE
                       AIR SEA DIR/SP/G            HT/PER
                 (UTC) (F)     (DEG/KT/KT) (MB)    (FT/S)
SABINE PASS      0600   77 78  150/ 10/ 13 1010.4
SEA RIM ST PARK  0700   77     150/ 12/ 15 1009.3
NORTH JETTY/GLS  0600   79 78                N/A
EAGLE POINT      0600   78 74  140/  9/ 10 1008.7
MORGANS POINT    0600   78 74  100/  6/  7 1008.9
MISSION/ARANSAS  0600   80                 1008.0
PORT O`CONNOR    0600           80/ 10/ 12   N/A
PORT ARANSAS     0700   78 80   70/  9/ 10 1007.5
MALAQUITE BEACH  0600   78 81   80/ 11/ 13 1007.5
BAFFIN BAY       0600   78 82   80/ 11/ 14 1007.1
PORT ISABEL      0600   78 78              1006.4
$$

GMZ080-GMZ150>470-010800-
OFFSHORE BUOY REPORTS

STATION/POSITION TIME  TEMP    WIND        PRES    WAVE
                       AIR SEA DIR/SP/G            HT/PER
                 (UTC) (F)     (DEG/KT/KT) (MB)    (FT/S)
20 E GALVESTON   0650   77 77  150/ 12/ 14 1008.0    4/ 8
90 E PT ARANSAS  0650   78 78  130/ 12/ 16 1007.2    6/ 8
35 NE PT MANSFLD 0650   78 78   80/  6/  6 1006.5    5/ 8
200 E PT ISABEL  0650                        N/A     6/ 8
$$




USA.gov is the U.S. government's official web portal to all federal, state and local government web resources and services.